Stations météo

Publicité
Perpignan, France (7747): Température de l'air & dewpoint: 20.03.2017 09:00:00 - 26.03.2017 09:00:00 (CEST)Perpignan, France (7747): Température de l'air 5cm: 20.03.2017 09:00:00 - 26.03.2017 09:00:00 (CEST)Perpignan, France (7747): Température de l'air -20cm & Température de l'air -100cm: 20.03.2017 09:00:00 - 26.03.2017 09:00:00 (CEST)Perpignan, France (7747): Vitesse du vent & gusts: 20.03.2017 09:00:00 - 26.03.2017 09:00:00 (CEST)Perpignan, France (7747): Direction du vent: 20.03.2017 09:00:00 - 26.03.2017 09:00:00 (CEST)Perpignan, France (7747): reduced air pressure: 20.03.2017 09:00:00 - 26.03.2017 09:00:00 (CEST)Perpignan, France (7747): visibility: 20.03.2017 09:00:00 - 26.03.2017 09:00:00 (CEST)Perpignan, France (7747): Ensoleillement: 20.03.2017 09:00:00 - 26.03.2017 09:00:00 (CEST)Perpignan, France (7747): Quantités de précipitations: 20.03.2017 09:00:00 - 26.03.2017 09:00:00 (CEST)
Date & Time tt [°C] td [°C] tt 5cm [°C] tt -20cm [°C] tt -100cm [°C] ff [km/h] ff [knt] fx [km/h] fx [knt] dd ppp [hPa] vv [km] sd [min] rr [mm]
26.03.2017 09:00:00 6,5 4,2 3,5 11,9 14,0 0 0 11 6 N 1018,4 52 60 0,0
26.03.2017 08:00:00 4,4 2,3 0,8 12,0 14,1 10 5 17 9 WSW 1018,0 60 10 0,0
26.03.2017 07:00:00 3,8 2,0 0,4 12,2 14,0 7 4 11 6 SW 1017,1 60 0 0,0
26.03.2017 06:00:00 4,1 2,0 0,8 12,3 14,0 5 3 14 8 WNW 1016,9 60 0 0,0
26.03.2017 05:00:00 4,7 2,4 1,3 12,5 14,0 5 3 14 8 N 1016,8 60 0 0,0
26.03.2017 04:00:00 5,6 2,8 1,4 12,7 14,0 4 2 11 6 NNW 1016,8 60 0 0,0
26.03.2017 03:00:00 4,9 2,6 1,6 12,8 14,1 9 5 13 7 W 1017,5 60 0 0,0
26.03.2017 02:00:00 5,6 2,9 2,2 13,0 14,1 9 5 12 6 W 1017,1 60 0 0,0
26.03.2017 01:00:00 6,6 2,7 2,7 13,2 14,1 8 4 11 6 W 1016,9 60 0 0,0
26.03.2017 00:00:00 6,7 2,9 2,6 13,3 14,1 7 4 12 7 WSW 1016,5 60 0 0,0
25.03.2017 23:00:00 9,1 2,0 4,4 13,4 14,1 0 0 18 10 N 1016,1 60 0 0,0
25.03.2017 22:00:00 10,8 2,1 7,9 13,5 14,1 11 6 28 15 S 1015,3 60 0 0,0
25.03.2017 21:00:00 11,6 2,6 10,0 13,6 14,1 15 8 30 16 SE 1014,4 60 0 0,0
25.03.2017 20:00:00 12,5 1,8 11,3 13,5 14,1 19 10 37 20 SSE 1014,1 60 0 0,0
25.03.2017 19:00:00 14,1 2,6 13,7 13,5 14,1 24 13 43 23 S 1014,3 55 53 0,0
25.03.2017 18:00:00 15,9 1,9 16,2 13,3 14,2 25 13 42 23 S 1013,8 40 58 0,0
25.03.2017 17:00:00 16,4 1,7 19,0 13,1 14,2 32 17 50 27 S 1013,7 21 60 0,0
25.03.2017 16:00:00 16,1 1,8 18,2 12,8 14,2 31 17 58 31 S 1013,9 17 60 0,0
25.03.2017 15:00:00 16,0 3,4 17,2 12,6 14,2 35 19 67 36 S 1013,3 17 60 0,0
25.03.2017 14:00:00 14,8 3,0 19,6 12,4 14,2 37 20 66 35 S 1013,2 16 60 0,0
25.03.2017 13:00:00 13,4 3,7 13,1 12,3 14,2 46 25 82 45 S 1012,3 14 60 0,0
25.03.2017 12:00:00 10,9 3,2 10,1 12,3 14,3 45 24 87 47 S 1010,8 15 13 0,0
25.03.2017 11:00:00 10,7 4,6 10,5 12,3 14,2 31 17 47 25 SSE 1009,7 47 16 0,0
25.03.2017 10:00:00 10,4 7,8 10,5 12,2 14,3 21 11 39 21 ESE 1009,2 44 1 0,0
25.03.2017 09:00:00 10,9 7,9 10,4 12,2 14,3 18 10 42 23 ESE 1009,0 51 0 0,0
25.03.2017 08:00:00 11,6 9,7 10,8 12,2 14,3 24 13 63 34 ESE 1008,5 17 0 1,6
25.03.2017 07:00:00 11,4 10,3 10,5 12,2 14,3 26 14 43 23 E 1008,7 6 0 5,8
25.03.2017 06:00:00 11,1 10,2 10,6 12,1 14,3 19 10 50 27 ESE 1010,2 3,3 0 6,9
25.03.2017 05:00:00 12,4 10,6 11,2 12,3 14,3 41 22 72 39 E 1010,4 3,3 0 6,6
25.03.2017 04:00:00 11,6 11,1 8,8 12,2 14,3 16 8 27 14 NE 1011,3 9 0 0,0
25.03.2017 03:00:00 8,7 8,1 6,9 12,3 14,3 6 3 29 16 NNW 1013,1 10 0 0,4
25.03.2017 02:00:00 7,0 5,9 7,0 12,3 14,3 17 9 29 15 SW 1015,2 23 0 1,8
25.03.2017 01:00:00 7,2 6,3 6,7 12,6 14,3 13 7 29 16 W 1016,0 44 0 2,8
25.03.2017 00:00:00 6,8 5,9 6,2 12,7 14,3 16 9 23 13 W 1016,5 9 0 2,6
24.03.2017 23:00:00 6,6 5,4 6,4 12,9 14,4 16 9 31 17 W 1016,8 3,6 0 2,6
24.03.2017 22:00:00 7,2 5,8 7,0 13,0 14,4 14 8 26 14 WNW 1016,6 6 0 1,4
24.03.2017 21:00:00 7,2 6,0 6,9 13,2 14,4 13 7 22 12 WNW 1016,4 10 0 7,6
24.03.2017 20:00:00 7,6 6,1 7,2 13,4 14,4 16 9 35 19 NW 1015,8 8 0 2,5
24.03.2017 19:00:00 7,7 6,0 7,4 13,5 14,4 22 12 31 17 W 1015,7 6 0 2,6
24.03.2017 18:00:00 8,5 7,3 8,2 13,5 14,4 14 8 23 12 WNW 1016,2 2,6 0 6,4
24.03.2017 17:00:00 9,3 7,6 9,1 13,3 14,4 11 6 20 11 W 1015,9 8 0 1,8
24.03.2017 16:00:00 10,8 8,4 10,7 13,4 14,4 8 5 13 7 W 1015,9 7 0 0,6
24.03.2017 15:00:00 11,5 8,2 11,8 13,4 14,4 8 4 12 7 NW 1015,9 23 0 0,2
24.03.2017 14:00:00 11,8 7,7 11,7 13,3 14,4 4 2 16 9 ENE 1016,3 22 0 0,0
24.03.2017 13:00:00 12,4 7,1 12,0 13,1 14,4 8 5 13 7 E 1016,2 20 0 0,0
24.03.2017 12:00:00 10,7 6,8 10,4 13,1 14,4 6 3 10 5 NNW 1016,4 34 0 0,0
24.03.2017 11:00:00 9,7 5,9 10,0 13,2 14,4 3 2 6 3 NE 1016,6 20 0 0,0
24.03.2017 10:00:00 8,7 6,3 7,6 13,2 14,4 3 2 7 4 W 1016,0 60 0 0,0
24.03.2017 09:00:00 7,6 5,9 5,2 13,3 14,4 5 3 8 5 W 1015,3 60 0 0,0
24.03.2017 08:00:00 6,8 5,1 4,8 13,3 14,4 5 3 7 4 W 1015,0 57 0 0,0
24.03.2017 07:00:00 6,4 4,6 4,5 13,6 14,4 5 3 8 4 WNW 1014,2 60 0 0,0
24.03.2017 06:00:00 6,5 4,7 2,1 13,7 14,4 2 1 11 6 W 1014,2 56 0 0,0
24.03.2017 05:00:00 6,0 4,2 2,0 13,9 14,4 0 0 6 3 N 1013,8 53 0 0,0
24.03.2017 04:00:00 6,9 4,7 2,9 14,1 14,4 0 0 7 4 N 1014,0 53 0 0,0
24.03.2017 03:00:00 6,5 4,5 3,5 14,3 14,4 3 1 10 5 WSW 1014,2 49 0 0,0
24.03.2017 02:00:00 6,7 3,7 2,6 14,4 14,4 6 3 8 4 N 1013,9 56 0 0,0
24.03.2017 01:00:00 7,0 3,6 3,1 14,6 14,4 3 2 5 3 WNW 1014,3 60 0 0,0
24.03.2017 00:00:00 8,6 4,0 4,2 14,8 14,4 5 3 6 3 WNW 1014,0 60 0 0,0
23.03.2017 23:00:00 9,8 3,5 4,9 15,0 14,4 0 0 7 4 N 1013,7 60 0 0,0
23.03.2017 22:00:00 11,0 2,8 7,2 15,0 14,3 0 0 10 5 N 1012,9 60 0 0,0
23.03.2017 21:00:00 12,4 3,3 11,0 15,1 14,4 10 6 16 8 N 1012,0 60 0 0,0
23.03.2017 20:00:00 12,3 5,5 11,5 15,1 14,4 10 6 18 10 ENE 1011,4 60 0 0,0
23.03.2017 19:00:00 13,5 5,9 13,4 15,0 14,4 9 5 18 10 E 1010,3 60 20 0,0
23.03.2017 18:00:00 13,7 5,8 15,0 14,8 14,4 15 8 22 12 ENE 1009,4 60 13 0,0
23.03.2017 17:00:00 14,4 5,2 18,2 14,5 14,4 11 6 23 12 N 1008,9 57 44 0,0
23.03.2017 16:00:00 14,0 4,8 17,9 14,2 14,4 13 7 29 16 N 1008,6 60 40 0,0
23.03.2017 15:00:00 13,3 5,0 16,8 14,0 14,4 22 12 32 17 NW 1008,9 60 38 0,0
23.03.2017 14:00:00 13,4 6,0 16,5 13,7 14,4 18 10 32 17 WNW 1008,9 60 14 0,0
23.03.2017 13:00:00 13,3 6,4 14,2 13,5 14,4 14 8 26 14 NW 1008,7 47 5 0,0
23.03.2017 12:00:00 13,4 8,5 17,1 13,4 14,4 9 5 17 9 NNE 1008,9 20 20 0,0
23.03.2017 11:00:00 11,9 6,8 12,4 13,4 14,4 7 4 17 9 N 1008,7 53 18 0,0
23.03.2017 10:00:00 10,4 5,8 9,1 13,4 14,4 7 4 13 7 NNW 1008,4 59 0 0,0
23.03.2017 09:00:00 8,9 5,3 6,9 13,5 14,4 5 3 18 10 WNW 1007,9 60 0 0,0
23.03.2017 08:00:00 8,1 4,7 4,4 13,8 14,4 10 5 16 9 W 1007,7 60 0 0,0
23.03.2017 07:00:00 6,6 4,4 2,5 13,9 14,4 8 4 13 7 W 1007,2 60 0 0,0
23.03.2017 06:00:00 6,0 3,5 2,6 14,0 14,4 9 5 12 6 W 1006,8 60 0 0,0
23.03.2017 05:00:00 8,2 4,0 5,4 14,2 14,4 6 3 18 10 NNW 1006,8 60 0 0,0
23.03.2017 04:00:00 8,0 5,1 4,7 14,3 14,4 6 3 21 11 N 1007,6 54 0 0,0
23.03.2017 03:00:00 9,0 5,4 6,4 14,5 14,4 8 4 22 12 NNW 1007,6 48 0 0,0
23.03.2017 02:00:00 11,0 5,5 6,7 14,7 14,4 14 7 31 17 NW 1007,3 42 0 0,0
23.03.2017 01:00:00 10,1 6,2 2,4 15,0 14,4 5 3 11 6 ENE 1007,3 38 0 0,0
23.03.2017 00:00:00 6,6 5,1 2,5 15,2 14,4 6 3 8 5 SW 1008,1 36 0 0,0
22.03.2017 23:00:00 7,6 5,6 2,9 15,3 14,4 5 3 10 6 SW 1008,6 46 0 0,0
22.03.2017 22:00:00 8,7 6,5 4,1 15,6 14,4 6 4 10 5 W 1008,6 48 0 0,0
22.03.2017 21:00:00 11,2 8,1 5,1 15,6 14,4 0 0 7 4 N 1008,5 55 0 0,0
22.03.2017 20:00:00 12,3 8,2 9,9 15,7 14,3 4 2 17 9 NE 1008,4 60 45 0,0
22.03.2017 19:00:00 13,7 8,3 15,0 15,6 14,4 11 6 22 12 NE 1008,2 54 56 0,0
22.03.2017 18:00:00 13,5 8,1 15,4 15,5 14,4 16 9 25 14 NE 1008,8 60 19 0,0
22.03.2017 17:00:00 13,6 8,0 15,7 15,4 14,4 19 10 27 15 NNE 1009,1 54 24 0,0
22.03.2017 16:00:00 13,2 7,6 15,6 15,1 14,4 19 10 32 17 ENE 1009,9 56 15 0,0
22.03.2017 15:00:00 14,1 7,4 17,2 14,8 14,3 19 10 33 18 E 1010,6 47 55 0,0
22.03.2017 14:00:00 13,9 6,7 16,8 14,4 14,3 21 12 35 19 E 1011,3 37 34 0,0
22.03.2017 13:00:00 14,6 6,7 19,5 14,3 14,3 21 11 33 18 E 1011,7 60 56 0,0
22.03.2017 12:00:00 13,7 5,3 15,2 14,1 14,3 10 6 15 8 ESE 1012,5 60 14 0,0
22.03.2017 11:00:00 12,2 4,4 13,2 14,2 14,3 3 2 6 4 SSE 1013,1 60 3 0,0
22.03.2017 10:00:00 11,1 4,5 10,0 14,3 14,3 4 2 8 4 WNW 1013,1 60 0 0,0
22.03.2017 09:00:00 10,4 4,3 9,5 14,3 14,3 4 2 10 6 NW 1013,3 60 0 0,0
22.03.2017 08:00:00 10,5 4,0 9,8 14,4 14,4 6 3 13 7 N 1013,2 60 0 0,0
22.03.2017 07:00:00 10,8 3,6 9,8 14,5 14,3 7 4 16 8 NW 1013,6 60 0 0,0
22.03.2017 06:00:00 10,9 3,9 10,0 14,6 14,3 10 6 24 13 NW 1013,8 60 0 0,0
22.03.2017 05:00:00 10,7 4,2 10,0 14,6 14,3 12 7 24 13 NW 1014,2 60 0 0,0
22.03.2017 04:00:00 10,9 4,6 10,3 14,7 14,3 15 8 24 13 WNW 1014,4 60 0 0,0
22.03.2017 03:00:00 11,5 4,2 10,5 14,8 14,3 14 8 24 13 W 1014,9 60 0 0,0
22.03.2017 02:00:00 11,5 4,2 10,6 14,9 14,3 7 4 40 22 NNW 1015,1 60 0 0,0
22.03.2017 01:00:00 11,8 4,5 11,1 15,0 14,3 18 10 46 25 NW 1014,8 60 0 0,0
22.03.2017 00:00:00 11,7 4,4 9,8 15,2 14,3 20 11 48 26 NW 1015,1 60 0 0,0
21.03.2017 23:00:00 12,2 4,9 11,5 15,2 14,3 29 16 59 32 NW 1014,9 60 0 0,0
21.03.2017 22:00:00 13,8 6,2 12,6 15,3 14,3 27 14 46 25 NW 1015,2 60 0 0,0
21.03.2017 21:00:00 14,5 5,3 12,9 15,4 14,3 15 8 37 20 NW 1014,3 60 0 0,0
21.03.2017 20:00:00 14,5 5,0 13,1 15,5 14,3 17 9 46 25 NW 1014,0 60 0 0,0
21.03.2017 19:00:00 14,7 4,4 14,0 15,5 14,3 24 13 39 21 WNW 1013,8 60 0 0,0
21.03.2017 18:00:00 14,7 5,2 14,4 15,5 14,3 26 14 46 25 WNW 1013,8 56 0 0,0
21.03.2017 17:00:00 14,7 5,2 14,8 15,5 14,3 26 14 38 20 WNW 1013,6 57 0 0,0
21.03.2017 16:00:00 14,8 5,6 15,3 15,4 14,3 25 14 39 21 WNW 1013,4 56 0 0,0
21.03.2017 15:00:00 15,0 6,0 16,4 15,2 14,3 24 13 40 21 WNW 1013,9 49 0 0,0
21.03.2017 14:00:00 16,1 6,2 18,4 14,8 14,3 18 10 31 17 WNW 1014,1 48 0 0,0
21.03.2017 13:00:00 16,0 6,4 20,8 14,7 14,2 19 10 29 16 WNW 1014,4 60 45 0,0
21.03.2017 12:00:00 15,4 6,7 22,0 14,6 14,2 16 8 30 16 NW 1014,8 60 60 0,0
21.03.2017 11:00:00 14,1 6,0 19,6 14,6 14,2 20 11 32 18 NW 1015,3 60 60 0,0
21.03.2017 10:00:00 13,2 6,5 18,4 14,5 14,2 11 6 23 12 NW 1015,3 60 60 0,0
21.03.2017 09:00:00 12,3 7,0 7,9 14,8 14,2 6 4 13 7 NNW 1015,1 60 60 0,0
21.03.2017 08:00:00 10,6 6,2 7,2 14,9 14,2 5 3 27 15 N 1015,0 60 1 0,0
21.03.2017 07:00:00 11,8 6,3 8,6 15,1 14,2 9 5 36 19 NNW 1014,9 60 0 0,0
21.03.2017 06:00:00 12,4 6,7 10,5 15,2 14,2 24 13 37 20 WNW 1014,6 60 0 0,0
21.03.2017 05:00:00 12,7 6,7 10,6 15,4 14,1 20 11 46 25 NW 1014,5 60 0 0,0
21.03.2017 04:00:00 12,7 6,9 10,4 15,4 14,2 18 10 39 21 NW 1014,6 60 0 0,0
21.03.2017 03:00:00 12,7 6,9 10,7 15,6 14,1 18 10 42 23 NW 1014,6 60 0 0,0
21.03.2017 02:00:00 12,9 7,3 10,9 15,8 14,2 19 10 49 26 WNW 1014,9 60 0 0,0
21.03.2017 01:00:00 13,7 7,5 11,8 16,0 14,1 29 16 53 28 NW 1015,1 60 0 0,0
21.03.2017 00:00:00 14,0 7,5 11,9 16,2 14,1 27 15 50 27 WNW 1015,2 60 0 0,0
20.03.2017 23:00:00 14,3 7,3 12,5 16,3 14,1 28 15 45 25 NW 1015,1 53 0 0,0
20.03.2017 22:00:00 14,5 7,5 12,4 16,4 14,1 19 11 34 18 NW 1015,1 60 0 0,0
20.03.2017 21:00:00 15,2 8,0 10,0 16,6 14,1 20 11 29 16 WNW 1014,4 60 0 0,0
20.03.2017 20:00:00 15,4 8,2 12,8 16,6 14,1 6 3 10 6 SE 1013,6 60 46 0,0
20.03.2017 19:00:00 17,5 8,4 18,0 16,5 14,1 7 4 16 8 ESE 1013,3 58 60 0,0
20.03.2017 18:00:00 18,2 9,0 20,5 16,3 14,1 11 6 20 11 SE 1013,3 58 60 0,0
20.03.2017 17:00:00 18,6 10,7 21,7 16,0 14,1 12 7 25 13 SE 1013,3 60 60 0,0
20.03.2017 16:00:00 19,5 10,8 21,2 15,7 14,1 13 7 22 12 SE 1013,3 20 60 0,0
20.03.2017 15:00:00 19,5 10,8 23,7 15,3 14,0 15 8 21 12 SE 1013,7 60 60 0,0
20.03.2017 14:00:00 19,4 9,8 22,6 15,0 14,1 8 4 21 11 ESE 1014,2 49 60 0,0
20.03.2017 13:00:00 18,3 9,9 21,8 14,7 14,1 11 6 28 15 NNE 1014,7 58 55 0,0
20.03.2017 12:00:00 19,4 8,7 25,6 14,5 14,0 7 4 18 10 N 1014,8 56 60 0,0
20.03.2017 11:00:00 17,2 8,6 17,5 14,6 14,0 9 5 26 14 NW 1014,8 60 60 0,0
20.03.2017 10:00:00 14,5 8,0 15,7 14,6 14,0 14 8 29 16 NW 1015,2 55 31 0,0
20.03.2017 09:00:00 - - - - - - - - - - - - - -

tt = Température de l'air
td = dewpoint
tt 5cm = Température de l'air 5cm
tt -20cm = Température de l'air -20cm
tt -100cm = Température de l'air -100cm
ff = Vitesse du vent
fx = gusts
dd = Direction du vent
ppp = reduced air pressure
vv = visibility
sd = Ensoleillement
rr = Quantités de précipitations

stations d'obs. à proximité